Find Starlink 2494

NORAD ID: 48487 Int'l Des: 2021-040 Owner: SPXS Country: US Constellation: starlink operational
LEOCIRCULAR

实时位置

正在加载3D地球...

关于 Starlink 2494

正在加载描述...

即将过境

Passes for default location (London). Set your location on the main map for personalized predictions.

高度历史

Loading altitude history...

两行轨道根数

1 48487U 21040BM 26127.42027933 .00003848 00000-0 13569-3 0 9996
2 48487 53.1593 280.9596 0001156 80.1652 279.9480 15.31705571275461
Epoch: May 7, 2026 • Age: 13 hours

当前状态

高度 472.9 km
速度 7.63 km/s
星下点 -6.28°S, 114.2°W
发射日期 May 9, 2021
运行时间 4.9 years
类型 internet

技术详情

分类 Payload
质量 260.00 kg
干质量 248.00 kg
总质量 260.00 kg
长度 0.20 m
直径 2.80 m
跨度 9.00 m
形状 Box + pan
制造商 SPXS
平台类型 Starlink
阶段状态 In Orbit
所有者/国家 SPXS/US

Most Searched